EW0056 Weather Reports


Display with metric or nautical units.
time (UTC)temp
F
wind
direction
speed
MPH
gust
MPH
rain 1hr
in
rain 24hr
in
rain mn
in
humidity
%
barometer
mb
20260506194941 77 201 4.0 8.0 0.00 0.00 0.00 31 948.0
20260506194741 76 247 3.0 8.0 0.00 0.00 0.00 31 948.0
20260506194534 76 155 6.0 8.0 0.00 0.00 0.00 31 948.0
20260506194327 76 66 3.0 9.0 0.00 0.00 0.00 31 948.0
20260506194119 76 304 4.0 9.0 0.00 0.00 0.00 31 948.0
20260506193604 76 167 3.0 9.0 0.00 0.00 0.00 31 948.0
20260506193358 75 244 4.0 9.0 0.00 0.00 0.00 31 948.0
20260506193158 75 154 5.0 9.0 0.00 0.00 0.00 31 948.0
20260506192951 75 165 3.0 9.0 0.00 0.00 0.00 31 948.0
20260506192741 75 89 4.0 9.0 0.00 0.00 0.00 31 948.0
20260506192214 75 208 4.0 8.0 0.00 0.00 0.00 32 948.0
20260506192011 74 215 2.0 8.0 0.00 0.00 0.00 32 948.0
20260506191804 74 268 4.0 8.0 0.00 0.00 0.00 32 948.0
20260506191556 74 267 3.0 8.0 0.00 0.00 0.00 32 948.0
20260506191349 74 307 3.0 8.0 0.00 0.00 0.00 32 948.0
20260506191151 74 326 3.0 8.0 0.00 0.00 0.00 32 948.0
20260506190950 74 76 1.0 8.0 0.00 0.00 0.00 32 948.0
20260506190750 74 181 2.0 8.0 0.00 0.00 0.00 32 948.0
20260506190544 75 203 4.0 8.0 0.00 0.00 0.00 32 948.0
20260506190340 75 227 4.0 8.0 0.00 0.00 0.00 31 948.0
20260506185814 76 156 4.0 8.0 0.00 0.00 0.00 31 948.0
20260506185611 75 154 2.0 8.0 0.00 0.00 0.00 31 948.0
20260506185401 74 158 1.0 4.0 0.00 0.00 0.00 32 948.0
20260506185153 73 353 0.0 0.0 0.00 0.00 0.00 32 948.0
20260506184943 73 333 1.0 9.0 0.00 0.00 0.00 32 948.0
20260506184742 74 271 5.0 9.0 0.00 0.00 0.00 31 948.0
20260506184223 73 135 4.0 9.0 0.00 0.00 0.00 32 948.0
20260506184016 73 219 4.0 7.0 0.00 0.00 0.00 32 948.0
20260506183807 73 86 1.0 7.0 0.00 0.00 0.00 32 948.0
20260506183600 73 57 3.0 7.0 0.00 0.00 0.00 32 948.0
20260506183043 73 273 3.0 7.0 0.00 0.00 0.00 32 948.0
20260506182844 73 151 3.0 7.0 0.00 0.00 0.00 32 948.0
20260506182644 73 76 2.0 5.0 0.00 0.00 0.00 32 948.0
20260506182434 72 85 3.0 5.0 0.00 0.00 0.00 32 948.0
20260506182233 72 173 3.0 5.0 0.00 0.00 0.00 32 948.0
20260506182034 72 209 2.0 6.0 0.00 0.00 0.00 32 948.0
20260506181834 72 223 2.0 6.0 0.00 0.00 0.00 32 948.0
20260506180945 72 156 4.0 7.0 0.00 0.00 0.00 32 948.0
20260506180745 72 154 4.0 7.0 0.00 0.00 0.00 32 948.0
20260506180536 72 162 3.0 7.0 0.00 0.00 0.00 32 948.0
20260506180327 72 101 1.0 7.0 0.00 0.00 0.00 32 948.0
20260506180121 72 124 2.0 7.0 0.00 0.00 0.00 32 948.0
20260506175913 72 56 2.0 7.0 0.00 0.00 0.00 32 948.0
20260506175710 72 147 2.0 7.0 0.00 0.00 0.00 32 948.0
20260506175501 72 182 3.0 7.0 0.00 0.00 0.00 32 948.0
20260506175259 73 196 3.0 7.0 0.00 0.00 0.00 32 948.0
20260506175055 73 139 5.0 7.0 0.00 0.00 0.00 32 948.0
20260506174850 73 139 3.0 6.0 0.00 0.00 0.00 32 948.0
20260506174315 71 0 0.0 2.0 0.00 0.00 0.00 33 948.0
20260506174115 71 357 0.0 6.0 0.00 0.00 0.00 33 948.0
20260506173235 70 37 2.0 4.0 0.00 0.00 0.00 35 949.0
20260506173029 70 45 3.0 4.0 0.00 0.00 0.00 34 949.0
20260506172821 69 45 1.0 4.0 0.00 0.00 0.00 35 949.0
20260506172621 69 13 0.0 4.0 0.00 0.00 0.00 34 949.0
20260506172414 69 314 0.0 4.0 0.00 0.00 0.00 35 949.0
20260506172208 68 307 1.0 4.0 0.00 0.00 0.00 33 949.0
20260506171958 68 62 3.0 4.0 0.00 0.00 0.00 35 949.0
20260506171757 67 45 3.0 4.0 0.00 0.00 0.00 34 949.0
20260506171240 67 28 0.0 0.0 0.00 0.00 0.00 34 949.0
20260506171034 66 28 4.0 6.0 0.00 0.00 0.00 33 949.0
20260506170831 66 26 0.0 3.0 0.00 0.00 0.00 33 949.0
20260506170632 67 22 0.0 0.0 0.00 0.00 0.00 33 949.0
20260506170115 66 11 2.0 6.0 0.00 0.00 0.00 33 949.0
20260506165227 66 175 3.0 6.0 0.00 0.00 0.00 34 949.0
20260506165024 65 180 0.0 6.0 0.00 0.00 0.00 34 949.0
20260506164502 64 52 3.0 6.0 0.00 0.00 0.00 35 949.0
20260506164252 64 39 3.0 3.0 0.00 0.00 0.00 37 949.0
20260506164044 64 57 0.0 0.0 0.00 0.00 0.00 37 949.0
20260506163841 63 57 0.0 0.0 0.00 0.00 0.00 37 949.0
20260506163630 63 56 0.0 0.0 0.00 0.00 0.00 38 949.0
20260506163110 61 81 1.0 3.0 0.00 0.00 0.00 38 949.0
20260506162221 61 32 3.0 5.0 0.00 0.00 0.00 38 949.0
20260506162016 61 21 0.0 3.0 0.00 0.00 0.00 40 949.0
20260506161807 60 21 2.0 3.0 0.00 0.00 0.00 39 949.0
20260506161603 60 65 0.0 0.0 0.00 0.00 0.00 39 949.0
20260506161403 60 46 0.0 4.0 0.00 0.00 0.00 41 949.0
20260506160838 59 126 0.0 0.0 0.00 0.00 0.00 38 949.0
20260506160310 58 147 0.0 3.0 0.00 0.00 0.00 39 949.0
20260506155902 58 43 0.0 4.0 0.00 0.00 0.00 41 949.0
20260506155701 57 43 2.0 4.0 0.00 0.00 0.00 40 949.0
20260506155455 57 43 3.0 4.0 0.00 0.00 0.00 38 949.0
20260506155244 57 54 1.0 3.0 0.00 0.00 0.00 39 949.0
20260506155034 57 64 3.0 3.0 0.00 0.00 0.00 39 949.0
20260506154828 57 61 2.0 3.0 0.00 0.00 0.00 40 949.0
20260506154618 56 47 0.0 3.0 0.00 0.00 0.00 41 949.0
20260506154412 56 337 0.0 0.0 0.00 0.00 0.00 41 949.0
20260506154206 56 337 0.0 0.0 0.00 0.00 0.00 41 949.0
20260506154006 56 336 0.0 0.0 0.00 0.00 0.00 43 949.0
20260506153806 56 336 0.0 0.0 0.00 0.00 0.00 40 949.0
20260506153559 56 336 2.0 3.0 0.00 0.00 0.00 41 949.0
20260506153351 56 54 0.0 3.0 0.00 0.00 0.00 45 949.0
20260506153141 56 54 0.0 3.0 0.00 0.00 0.00 46 949.0
20260506152931 55 53 0.0 3.0 0.00 0.00 0.00 45 949.0
20260506152721 55 63 0.0 0.0 0.00 0.00 0.00 47 949.0
20260506152201 55 63 0.0 0.0 0.00 0.00 0.00 51 949.0
20260506151950 55 63 0.0 0.0 0.00 0.00 0.00 52 949.0
20260506151746 54 63 0.0 0.0 0.00 0.00 0.00 53 949.0
20260506151536 54 63 0.0 0.0 0.00 0.00 0.00 54 949.0
20260506151011 54 63 0.0 0.0 0.00 0.00 0.00 55 949.0
20260506150807 54 76 0.0 0.0 0.00 0.00 0.00 55 949.0
20260506150556 53 76 0.0 0.0 0.00 0.00 0.00 55 949.0
20260506150350 53 76 0.0 3.0 0.00 0.00 0.00 56 949.0
20260506145833 53 76 1.0 3.0 0.00 0.00 0.00 58 949.0
20260506145627 53 76 1.0 2.0 0.00 0.00 0.00 58 949.0
20260506145427 52 79 0.0 0.0 0.00 0.00 0.00 60 949.0
20260506144906 52 174 0.0 0.0 0.00 0.00 0.00 61 949.0
20260506144346 51 174 0.0 0.0 0.00 0.00 0.00 61 949.0
20260506143455 50 174 0.0 0.0 0.00 0.00 0.00 64 949.0
20260506143254 50 174 0.0 0.0 0.00 0.00 0.00 64 949.0
20260506143046 50 175 0.0 0.0 0.00 0.00 0.00 66 949.0
20260506142841 50 175 0.0 0.0 0.00 0.00 0.00 66 949.0
20260506142632 49 175 0.0 0.0 0.00 0.00 0.00 67 949.0
20260506142430 49 175 0.0 0.0 0.00 0.00 0.00 67 949.0
20260506142221 49 174 0.0 0.0 0.00 0.00 0.00 67 949.0
20260506141654 49 174 0.0 0.0 0.00 0.00 0.00 69 949.0
20260506141136 48 174 0.0 0.0 0.00 0.00 0.00 69 949.0
20260506140933 48 175 0.0 0.0 0.00 0.00 0.00 70 949.0
20260506140729 48 174 0.0 0.0 0.00 0.00 0.00 70 949.0
20260506140522 47 174 0.0 0.0 0.00 0.00 0.00 70 949.0
20260506140321 47 175 0.0 0.0 0.00 0.00 0.00 70 949.0
20260506140115 47 175 0.0 0.0 0.00 0.00 0.00 70 949.0
20260506135914 47 175 0.0 0.0 0.00 0.00 0.00 71 949.0
20260506135708 47 175 0.0 0.0 0.00 0.00 0.00 71 949.0
20260506135500 47 175 0.0 0.0 0.00 0.00 0.00 71 949.0
20260506135252 47 174 0.0 0.0 0.00 0.00 0.00 71 949.0
20260506135045 47 175 0.0 0.0 0.00 0.00 0.00 71 949.0
20260506134839 47 175 0.0 0.0 0.00 0.00 0.00 71 949.0
20260506134630 47 174 0.0 0.0 0.00 0.00 0.00 70 949.0
20260506134428 47 175 0.0 0.0 0.00 0.00 0.00 70 949.0
20260506133859 47 174 0.0 0.0 0.00 0.00 0.00 70 949.0
20260506133649 47 175 0.0 0.0 0.00 0.00 0.00 70 949.0
20260506133439 47 174 0.0 0.0 0.00 0.00 0.00 70 949.0
20260506132555 46 175 0.0 0.0 0.00 0.00 0.00 69 949.0
20260506132037 46 174 0.0 0.0 0.00 0.00 0.00 67 948.0
20260506131828 46 175 0.0 0.0 0.00 0.00 0.00 66 948.0
20260506131619 46 174 0.0 0.0 0.00 0.00 0.00 66 948.0
20260506131416 46 174 0.0 0.0 0.00 0.00 0.00 66 948.0
20260506131210 46 174 0.0 0.0 0.00 0.00 0.00 66 948.0
20260506131006 46 175 0.0 0.0 0.00 0.00 0.00 66 948.0
20260506130759 46 175 0.0 0.0 0.00 0.00 0.00 66 948.0
20260506130554 46 175 0.0 0.0 0.00 0.00 0.00 66 948.0
20260506130347 46 175 0.0 0.0 0.00 0.00 0.00 66 948.0
20260506130149 46 175 0.0 0.0 0.00 0.00 0.00 66 948.0
20260506125305 45 174 0.0 0.0 0.00 0.00 0.00 65 949.0
20260506125058 45 174 0.0 0.0 0.00 0.00 0.00 65 949.0
20260506124857 45 174 0.0 0.0 0.00 0.00 0.00 65 949.0
20260506124655 45 175 0.0 0.0 0.00 0.00 0.00 65 949.0
20260506124444 45 174 0.0 0.0 0.00 0.00 0.00 65 949.0
20260506124238 46 174 0.0 0.0 0.00 0.00 0.00 65 949.0
20260506124031 46 174 0.0 0.0 0.00 0.00 0.00 65 949.0
20260506123826 46 175 0.0 0.0 0.00 0.00 0.00 64 948.0
20260506123306 46 175 0.0 0.0 0.00 0.00 0.00 63 948.0
20260506122732 46 174 0.0 0.0 0.00 0.00 0.00 63 948.0
20260506122525 46 174 0.0 0.0 0.00 0.00 0.00 63 948.0
20260506121956 46 174 0.0 0.0 0.00 0.00 0.00 63 948.0
20260506121755 46 175 0.0 0.0 0.00 0.00 0.00 63 948.0
20260506121553 46 175 0.0 0.0 0.00 0.00 0.00 62 948.0
20260506121353 47 175 0.0 0.0 0.00 0.00 0.00 63 948.0
20260506121150 47 175 0.0 0.0 0.00 0.00 0.00 63 948.0
20260506120941 47 175 0.0 0.0 0.00 0.00 0.00 62 948.0
20260506120741 47 174 0.0 0.0 0.00 0.00 0.00 60 948.0
20260506120538 47 175 0.0 0.0 0.00 0.00 0.00 59 948.0
20260506120012 47 174 0.0 0.0 0.00 0.00 0.00 58 948.0
20260506115812 47 175 0.0 0.0 0.00 0.00 0.00 58 948.0
20260506115609 47 174 0.0 0.0 0.00 0.00 0.00 58 948.0
20260506115408 47 175 0.0 0.0 0.00 0.00 0.00 58 948.0
20260506115203 47 175 0.0 0.0 0.00 0.00 0.00 58 948.0
20260506114959 47 175 0.0 0.0 0.00 0.00 0.00 59 948.0
20260506114753 47 174 0.0 0.0 0.00 0.00 0.00 59 948.0
20260506114548 47 175 0.0 0.0 0.00 0.00 0.00 59 948.0
20260506114345 47 174 0.0 0.0 0.00 0.00 0.00 59 948.0
20260506114135 47 174 0.0 0.0 0.00 0.00 0.00 60 948.0
20260506113931 47 174 0.0 0.0 0.00 0.00 0.00 60 948.0
20260506113731 47 175 0.0 0.0 0.00 0.00 0.00 60 948.0
20260506113531 47 175 0.0 0.0 0.00 0.00 0.00 60 948.0
20260506113010 47 175 0.0 0.0 0.00 0.00 0.00 60 948.0
20260506112444 47 174 0.0 0.0 0.00 0.00 0.00 60 948.0
20260506112236 47 174 0.0 0.0 0.00 0.00 0.00 60 948.0
20260506112032 47 175 0.0 0.0 0.00 0.00 0.00 60 948.0
20260506111827 47 174 0.0 0.0 0.00 0.00 0.00 60 948.0
20260506111626 47 175 0.0 0.0 0.00 0.00 0.00 61 948.0
20260506111419 47 174 0.0 0.0 0.00 0.00 0.00 61 948.0
20260506111217 47 174 0.0 0.0 0.00 0.00 0.00 61 948.0
20260506111015 47 174 0.0 0.0 0.00 0.00 0.00 61 948.0
20260506110810 47 174 0.0 0.0 0.00 0.00 0.00 62 948.0
20260506110600 47 175 0.0 0.0 0.00 0.00 0.00 61 948.0
20260506110353 47 175 0.0 0.0 0.00 0.00 0.00 61 948.0
20260506105506 48 175 0.0 0.0 0.00 0.00 0.00 61 948.0
20260506105256 48 175 0.0 0.0 0.00 0.00 0.00 61 948.0
20260506105052 48 175 0.0 0.0 0.00 0.00 0.00 61 948.0
20260506104851 48 175 0.0 0.0 0.00 0.00 0.00 61 948.0
20260506104002 49 174 0.0 0.0 0.00 0.00 0.00 59 948.0
20260506103757 48 174 0.0 0.0 0.00 0.00 0.00 57 948.0
20260506103555 48 174 0.0 0.0 0.00 0.00 0.00 56 948.0
20260506103355 49 174 0.0 0.0 0.00 0.00 0.00 56 948.0
20260506103153 49 175 0.0 0.0 0.00 0.00 0.00 56 948.0
20260506102950 49 174 0.0 0.0 0.00 0.00 0.00 56 948.0
20260506102743 49 175 0.0 0.0 0.00 0.00 0.00 56 948.0
20260506102544 49 174 0.0 0.0 0.00 0.00 0.00 56 948.0
20260506102335 49 175 0.0 0.0 0.00 0.00 0.00 57 948.0
20260506102131 49 175 0.0 0.0 0.00 0.00 0.00 57 948.0
20260506101926 49 175 0.0 0.0 0.00 0.00 0.00 57 948.0
20260506101722 49 175 0.0 0.0 0.00 0.00 0.00 58 948.0
20260506101512 49 175 0.0 0.0 0.00 0.00 0.00 58 948.0
20260506101302 49 174 0.0 0.0 0.00 0.00 0.00 58 948.0
20260506101059 49 175 0.0 0.0 0.00 0.00 0.00 56 948.0
20260506100857 49 175 0.0 0.0 0.00 0.00 0.00 56 948.0
20260506100654 49 174 0.0 0.0 0.00 0.00 0.00 55 948.0
20260506100449 49 175 0.0 0.0 0.00 0.00 0.00 55 948.0
20260506095924 49 174 0.0 0.0 0.00 0.00 0.00 53 948.0
20260506095716 49 174 0.0 0.0 0.00 0.00 0.00 52 948.0
20260506095506 50 174 0.0 0.0 0.00 0.00 0.00 53 948.0
20260506094940 50 175 0.0 0.0 0.00 0.00 0.00 52 948.0
20260506094737 50 174 0.0 0.0 0.00 0.00 0.00 51 948.0
20260506094527 51 175 0.0 0.0 0.00 0.00 0.00 51 948.0
20260506094319 51 174 0.0 0.0 0.00 0.00 0.00 51 948.0
20260506094110 51 174 0.0 0.0 0.00 0.00 0.00 51 948.0
20260506093905 51 174 0.0 0.0 0.00 0.00 0.00 51 948.0
20260506093658 51 174 0.0 0.0 0.00 0.00 0.00 51 948.0
20260506093457 51 175 0.0 0.0 0.00 0.00 0.00 51 948.0
20260506093255 51 175 0.0 0.0 0.00 0.00 0.00 51 948.0
20260506093050 51 174 0.0 0.0 0.00 0.00 0.00 51 948.0
20260506092530 51 175 0.0 0.0 0.00 0.00 0.00 51 948.0
20260506092330 51 175 0.0 0.0 0.00 0.00 0.00 52 948.0
20260506092126 51 175 0.0 0.0 0.00 0.00 0.00 52 948.0
20260506091919 51 175 0.0 0.0 0.00 0.00 0.00 52 948.0
20260506091714 51 175 0.0 0.0 0.00 0.00 0.00 50 948.0
20260506091507 51 175 0.0 0.0 0.00 0.00 0.00 50 948.0
20260506091308 51 175 0.0 0.0 0.00 0.00 0.00 50 948.0
20260506091101 51 175 0.0 0.0 0.00 0.00 0.00 50 948.0
20260506090539 51 175 0.0 0.0 0.00 0.00 0.00 49 948.0
20260506090337 51 175 0.0 0.0 0.00 0.00 0.00 49 948.0
20260506090135 51 174 0.0 0.0 0.00 0.00 0.00 49 948.0
20260506085607 51 175 0.0 0.0 0.00 0.00 0.00 50 948.0
20260506085041 51 175 0.0 0.0 0.00 0.00 0.00 49 948.0
20260506084514 51 175 0.0 0.0 0.00 0.00 0.00 48 948.0
20260506084311 51 175 0.0 0.0 0.00 0.00 0.00 49 948.0
20260506084105 51 175 0.0 0.0 0.00 0.00 0.00 49 948.0
20260506083900 51 175 0.0 0.0 0.00 0.00 0.00 47 948.0
20260506083651 51 174 0.0 0.0 0.00 0.00 0.00 47 948.0
20260506083453 51 175 0.0 0.0 0.00 0.00 0.00 47 948.0
20260506083250 51 175 0.0 0.0 0.00 0.00 0.00 47 948.0
20260506083048 52 174 0.0 0.0 0.00 0.00 0.00 47 948.0
20260506082839 52 175 0.0 0.0 0.00 0.00 0.00 47 948.0
20260506082630 52 175 0.0 0.0 0.00 0.00 0.00 46 948.0
20260506082421 52 175 0.0 0.0 0.00 0.00 0.00 46 948.0
20260506082216 52 174 0.0 0.0 0.00 0.00 0.00 46 948.0
20260506082009 52 175 0.0 0.0 0.00 0.00 0.00 46 948.0
20260506081809 52 175 0.0 0.0 0.00 0.00 0.00 45 948.0
20260506081604 52 175 0.0 0.0 0.00 0.00 0.00 46 948.0
20260506081358 53 175 0.0 0.0 0.00 0.00 0.00 46 948.0
20260506081151 53 175 0.0 0.0 0.00 0.00 0.00 46 948.0
20260506080946 53 175 0.0 0.0 0.00 0.00 0.00 45 948.0
20260506080742 53 175 0.0 0.0 0.00 0.00 0.00 45 948.0
20260506080536 53 175 0.0 0.0 0.00 0.00 0.00 44 948.0
20260506080335 53 174 0.0 0.0 0.00 0.00 0.00 44 948.0
20260506080134 53 175 0.0 0.0 0.00 0.00 0.00 44 948.0
20260506073418 53 168 0.0 0.0 0.00 0.00 0.00 43 948.0
20260506073215 53 168 0.0 0.0 0.00 0.00 0.00 42 948.0
20260506073010 53 168 0.0 0.0 0.00 0.00 0.00 42 948.0
20260506072806 53 168 0.0 0.0 0.00 0.00 0.00 42 948.0
20260506072605 54 168 0.0 0.0 0.00 0.00 0.00 41 948.0
20260506072404 54 168 0.0 0.0 0.00 0.00 0.00 41 948.0
20260506072155 54 168 0.0 0.0 0.00 0.00 0.00 41 948.0
20260506071631 54 168 0.0 0.0 0.00 0.00 0.00 40 948.0
20260506071431 55 168 0.0 0.0 0.00 0.00 0.00 40 948.0
20260506071222 55 168 0.0 0.0 0.00 0.00 0.00 40 948.0
20260506071023 55 168 0.0 0.0 0.00 0.00 0.00 40 948.0
20260506070820 55 168 0.0 0.0 0.00 0.00 0.00 40 948.0
20260506070615 55 168 0.0 0.0 0.00 0.00 0.00 39 948.0
20260506070405 55 168 0.0 0.0 0.00 0.00 0.00 39 948.0
20260506070205 55 168 0.0 0.0 0.00 0.00 0.00 39 948.0
20260506062435 57 168 0.0 0.0 0.00 0.00 0.00 36 948.0
20260506062226 57 168 0.0 0.0 0.00 0.00 0.00 36 948.0
20260506062025 57 168 0.0 0.0 0.00 0.00 0.00 36 948.0
20260506061819 57 168 0.0 0.0 0.00 0.00 0.00 36 948.0
20260506061615 57 168 0.0 0.0 0.00 0.00 0.00 36 948.0
20260506061044 57 168 0.0 0.0 0.00 0.00 0.00 35 948.0
20260506060835 57 168 0.0 0.0 0.00 0.00 0.00 35 947.0
20260506060311 58 168 0.0 0.0 0.00 0.00 0.00 35 947.0
20260506051222 59 168 0.0 0.0 0.00 0.00 0.00 32 947.0
20260506050818 59 168 0.0 0.0 0.00 0.00 0.00 32 947.0
20260506050608 59 168 0.0 0.0 0.00 0.00 0.00 32 947.0
20260506050404 60 168 0.0 0.0 0.00 0.00 0.00 32 947.0
20260506050155 60 168 0.0 0.0 0.00 0.00 0.00 32 947.0
20260506045011 60 168 0.0 0.0 0.00 0.00 0.00 31 947.0
20260506044812 60 168 0.0 3.0 0.00 0.00 0.00 31 947.0
20260506044603 61 168 0.0 0.0 0.00 0.00 0.00 30 947.0
20260506044403 61 168 0.0 0.0 0.00 0.00 0.00 31 947.0
20260506044203 61 168 0.0 0.0 0.00 0.00 0.00 31 947.0
20260506043957 61 168 0.0 3.0 0.00 0.00 0.00 30 947.0
20260506043749 61 139 0.0 0.0 0.00 0.00 0.00 30 947.0
20260506043543 61 139 0.0 3.0 0.00 0.00 0.00 29 947.0
20260506043344 61 139 0.0 0.0 0.00 0.00 0.00 29 947.0
20260506043138 61 140 0.0 0.0 0.00 0.00 0.00 30 947.0
20260506042935 62 140 0.0 0.0 0.00 0.00 0.00 29 947.0
20260506042055 61 158 0.0 0.0 0.00 0.00 0.00 29 947.0
20260506041537 60 213 0.0 3.0 0.00 0.00 0.00 30 947.0
20260506041330 61 211 0.0 0.0 0.00 0.00 0.00 31 947.0
20260506040809 61 211 0.0 0.0 0.00 0.00 0.00 30 947.0
20260506040603 61 211 0.0 0.0 0.00 0.00 0.00 30 947.0
20260506040034 61 211 1.0 3.0 0.00 0.00 0.00 29 947.0
20260506035834 61 194 0.0 0.0 0.00 0.00 0.00 29 947.0
20260506035626 61 195 0.0 0.0 0.00 0.00 0.00 29 947.0
20260506035425 61 195 0.0 0.0 0.00 0.00 0.00 30 947.0
20260506035222 62 195 0.0 0.0 0.00 0.00 0.00 30 947.0
20260506035018 62 195 0.0 0.0 0.00 0.00 0.00 30 947.0
20260506034452 62 195 0.0 0.0 0.00 0.00 0.00 30 947.0
20260506034242 62 195 0.0 0.0 0.00 0.00 0.00 29 947.0
20260506034034 62 195 0.0 0.0 0.00 0.00 0.00 29 947.0
20260506033827 62 195 0.0 0.0 0.00 0.00 0.00 29 947.0
20260506033258 62 195 0.0 0.0 0.00 0.00 0.00 30 947.0
20260506033050 62 195 0.0 0.0 0.00 0.00 0.00 29 947.0
20260506032848 62 195 0.0 0.0 0.00 0.00 0.00 29 947.0
20260506032638 62 195 0.0 0.0 0.00 0.00 0.00 29 947.0
20260506032437 63 195 0.0 0.0 0.00 0.00 0.00 29 946.0
20260506032234 63 195 0.0 0.0 0.00 0.00 0.00 29 946.0
20260506031658 63 195 0.0 0.0 0.00 0.00 0.00 28 946.0
20260506031141 63 195 0.0 3.0 0.00 0.00 0.00 28 946.0
20260506030613 64 198 0.0 0.0 0.00 0.00 0.00 29 946.0
20260506030409 64 198 0.0 0.0 0.00 0.00 0.00 29 946.0
20260506030201 64 197 0.0 3.0 0.00 0.00 0.00 29 946.0
20260506025952 64 142 0.0 0.0 0.00 0.00 0.00 28 946.0
20260506025749 64 142 0.0 0.0 0.00 0.00 0.00 28 946.0
20260506025540 64 142 0.0 3.0 0.00 0.00 0.00 28 946.0
20260506025333 65 142 0.0 3.0 0.00 0.00 0.00 28 946.0
20260506024802 65 141 0.0 4.0 0.00 0.00 0.00 28 946.0
20260506024557 65 141 0.0 0.0 0.00 0.00 0.00 28 946.0
20260506024356 65 141 1.0 2.0 0.00 0.00 0.00 28 946.0
20260506024152 65 140 0.0 4.0 0.00 0.00 0.00 28 946.0
20260506023626 65 166 0.0 0.0 0.00 0.00 0.00 28 946.0
20260506023426 65 169 0.0 0.0 0.00 0.00 0.00 29 946.0
20260506023221 65 168 0.0 0.0 0.00 0.00 0.00 28 946.0
20260506023016 65 168 0.0 0.0 0.00 0.00 0.00 29 946.0
20260506022806 65 168 0.0 0.0 0.00 0.00 0.00 28 946.0
20260506022600 65 166 0.0 0.0 0.00 0.00 0.00 27 946.0
20260506022350 65 166 0.0 0.0 0.00 0.00 0.00 27 946.0
20260506022151 66 166 0.0 0.0 0.00 0.00 0.00 27 946.0
20260506021616 66 166 0.0 0.0 0.00 0.00 0.00 28 946.0
20260506021415 66 166 0.0 0.0 0.00 0.00 0.00 28 946.0
20260506021205 66 166 0.0 0.0 0.00 0.00 0.00 27 946.0
20260506020644 66 166 0.0 0.0 0.00 0.00 0.00 27 946.0
20260506020441 67 166 0.0 0.0 0.00 0.00 0.00 27 946.0
20260506020235 67 166 0.0 0.0 0.00 0.00 0.00 27 946.0
20260506020031 67 166 0.0 0.0 0.00 0.00 0.00 27 946.0
20260506015822 67 166 0.0 0.0 0.00 0.00 0.00 27 946.0
20260506015257 67 166 0.0 0.0 0.00 0.00 0.00 27 946.0
20260506015052 67 166 0.0 0.0 0.00 0.00 0.00 27 946.0
20260506014853 68 166 0.0 0.0 0.00 0.00 0.00 26 946.0
20260506014645 68 166 0.0 0.0 0.00 0.00 0.00 26 946.0
20260506014438 68 166 0.0 0.0 0.00 0.00 0.00 26 946.0
20260506014237 68 166 0.0 0.0 0.00 0.00 0.00 26 946.0
20260506014032 69 166 0.0 0.0 0.00 0.00 0.00 25 946.0
20260506013823 69 166 0.0 0.0 0.00 0.00 0.00 25 946.0
20260506013621 69 166 0.0 0.0 0.00 0.00 0.00 25 946.0
20260506013415 69 166 0.0 0.0 0.00 0.00 0.00 25 946.0
20260506013205 69 166 0.0 0.0 0.00 0.00 0.00 25 946.0
20260506013005 70 166 0.0 0.0 0.00 0.00 0.00 24 946.0
20260506012801 70 166 0.0 0.0 0.00 0.00 0.00 24 946.0
20260506012553 70 165 0.0 0.0 0.00 0.00 0.00 24 946.0
20260506012354 70 165 0.0 0.0 0.00 0.00 0.00 23 946.0
20260506012154 70 165 0.0 0.0 0.00 0.00 0.00 23 946.0
20260506011954 70 165 0.0 0.0 0.00 0.00 0.00 23 946.0
20260506011744 71 165 0.0 3.0 0.00 0.00 0.00 23 946.0
20260506011542 71 167 2.0 3.0 0.00 0.00 0.00 23 946.0
20260506011339 71 225 2.0 3.0 0.00 0.00 0.00 23 946.0
20260506010808 71 177 1.0 3.0 0.00 0.00 0.00 24 946.0
20260506010606 71 137 0.0 3.0 0.00 0.00 0.00 23 946.0
20260506010401 71 135 0.0 0.0 0.00 0.00 0.00 23 946.0
20260506010202 71 187 0.0 2.0 0.00 0.00 0.00 23 946.0
20260506010001 71 196 0.0 0.0 0.00 0.00 0.00 23 946.0
20260506005445 72 193 0.0 3.0 0.00 0.00 0.00 23 946.0
20260506005242 72 207 0.0 0.0 0.00 0.00 0.00 23 946.0
20260506005042 73 207 0.0 0.0 0.00 0.00 0.00 22 946.0
20260506004519 73 208 0.0 2.0 0.00 0.00 0.00 22 946.0
20260506004309 74 346 0.0 0.0 0.00 0.00 0.00 22 946.0
20260506004101 74 346 0.0 0.0 0.00 0.00 0.00 21 946.0
20260506003535 75 346 1.0 5.0 0.00 0.00 0.00 21 947.0
20260506003325 76 31 3.0 5.0 0.00 0.00 0.00 21 947.0
20260506002807 77 146 0.0 5.0 0.00 0.00 0.00 21 947.0
20260506002557 78 28 0.0 5.0 0.00 0.00 0.00 21 947.0
20260506002354 77 147 0.0 0.0 0.00 0.00 0.00 21 947.0
20260506002146 77 151 2.0 3.0 0.00 0.00 0.00 21 947.0
20260506001614 77 325 0.0 0.0 0.00 0.00 0.00 21 947.0
20260506001407 77 325 0.0 0.0 0.00 0.00 0.00 21 947.0
20260506001209 78 325 2.0 3.0 0.00 0.00 0.00 21 947.0
20260506000635 79 257 0.0 3.0 0.00 0.00 0.00 20 947.0
20260506000109 79 72 0.0 0.0 0.00 0.00 0.00 20 947.0
20260505235903 80 72 0.0 4.0 0.00 0.00 0.00 21 947.0
20260505235703 79 70 3.0 4.0 0.00 0.00 0.00 21 947.0
20260505235455 80 34 3.0 4.0 0.00 0.00 0.00 21 947.0
20260505235250 80 39 3.0 4.0 0.00 0.00 0.00 20 947.0
20260505235046 80 66 2.0 4.0 0.00 0.00 0.00 21 947.0
20260505234843 80 49 0.0 4.0 0.00 0.00 0.00 21 947.0
20260505234639 81 77 3.0 4.0 0.00 0.00 0.00 20 947.0
20260505234117 82 41 1.0 5.0 0.00 0.00 0.00 20 947.0
20260505233552 81 60 3.0 5.0 0.00 0.00 0.00 20 947.0
20260505233342 80 42 4.0 5.0 0.00 0.00 0.00 21 947.0
20260505233135 80 49 4.0 5.0 0.00 0.00 0.00 21 947.0
20260505232929 80 58 2.0 3.0 0.00 0.00 0.00 21 947.0
20260505232723 79 12 0.0 3.0 0.00 0.00 0.00 21 947.0
20260505232514 79 12 0.0 3.0 0.00 0.00 0.00 21 947.0
20260505231949 80 15 3.0 4.0 0.00 0.00 0.00 21 947.0
20260505231741 80 290 0.0 3.0 0.00 0.00 0.00 21 947.0
20260505231536 80 39 0.0 3.0 0.00 0.00 0.00 21 947.0
20260505231010 77 39 2.0 4.0 0.00 0.00 0.00 21 947.0
20260505230809 77 45 4.0 4.0 0.00 0.00 0.00 21 947.0
20260505230608 77 1 3.0 4.0 0.00 0.00 0.00 21 947.0
20260505230405 77 36 3.0 4.0 0.00 0.00 0.00 22 947.0
20260505230205 76 52 0.0 2.0 0.00 0.00 0.00 21 947.0
20260505225321 75 357 3.0 5.0 0.00 0.00 0.00 22 948.0
20260505225120 76 46 0.0 4.0 0.00 0.00 0.00 22 948.0
20260505224911 76 69 1.0 4.0 0.00 0.00 0.00 22 948.0
20260505224704 76 72 1.0 4.0 0.00 0.00 0.00 22 948.0
20260505224503 76 71 0.0 4.0 0.00 0.00 0.00 22 948.0
20260505224256 76 33 0.0 4.0 0.00 0.00 0.00 22 948.0
20260505223731 76 63 0.0 3.0 0.00 0.00 0.00 22 948.0
20260505223528 75 80 0.0 2.0 0.00 0.00 0.00 22 948.0
20260505223320 75 39 0.0 6.0 0.00 0.00 0.00 22 948.0
20260505223120 75 40 3.0 6.0 0.00 0.00 0.00 22 948.0
20260505222910 75 60 1.0 6.0 0.00 0.00 0.00 22 948.0
20260505222700 75 63 3.0 6.0 0.00 0.00 0.00 22 948.0
20260505221828 75 357 3.0 5.0 0.00 0.00 0.00 22 948.0
20260505220937 74 23 0.0 4.0 0.00 0.00 0.00 22 948.0
20260505220735 74 30 0.0 4.0 0.00 0.00 0.00 23 948.0
20260505220534 74 337 0.0 4.0 0.00 0.00 0.00 24 948.0
20260505220329 74 50 3.0 5.0 0.00 0.00 0.00 22 948.0
20260505220124 75 69 0.0 5.0 0.00 0.00 0.00 22 948.0
20260505215922 74 58 0.0 5.0 0.00 0.00 0.00 23 948.0
20260505215352 74 343 1.0 5.0 0.00 0.00 0.00 22 948.0
20260505215145 74 39 2.0 5.0 0.00 0.00 0.00 23 948.0
20260505214939 74 259 2.0 3.0 0.00 0.00 0.00 23 948.0
20260505214732 74 8 1.0 3.0 0.00 0.00 0.00 23 948.0
20260505214526 74 310 2.0 3.0 0.00 0.00 0.00 22 948.0
20260505214324 74 348 0.0 0.0 0.00 0.00 0.00 22 948.0
20260505214115 73 325 0.0 7.0 0.00 0.00 0.00 22 948.0
20260505213905 73 325 1.0 7.0 0.00 0.00 0.00 22 948.0
20260505213702 73 0 1.0 7.0 0.00 0.00 0.00 22 948.0
20260505213458 73 320 3.0 7.0 0.00 0.00 0.00 22 948.0
20260505213253 73 15 0.0 7.0 0.00 0.00 0.00 23 948.0
20260505213050 74 13 2.0 7.0 0.00 0.00 0.00 22 948.0
20260505212848 73 29 4.0 7.0 0.00 0.00 0.00 22 948.0
20260505212639 74 35 1.0 6.0 0.00 0.00 0.00 22 948.0
20260505212437 74 38 3.0 4.0 0.00 0.00 0.00 22 948.0
20260505212231 74 37 3.0 3.0 0.00 0.00 0.00 23 948.0
20260505211657 73 357 0.0 4.0 0.00 0.00 0.00 23 948.0
20260505211123 73 333 0.0 6.0 0.00 0.00 0.00 22 948.0
20260505210913 74 22 2.0 6.0 0.00 0.00 0.00 22 949.0
20260505210707 74 9 3.0 6.0 0.00 0.00 0.00 24 949.0
20260505210503 73 340 3.0 6.0 0.00 0.00 0.00 24 949.0
20260505210258 73 39 2.0 6.0 0.00 0.00 0.00 24 949.0
20260505210050 73 52 2.0 4.0 0.00 0.00 0.00 23 949.0
20260505205847 73 296 0.0 6.0 0.00 0.00 0.00 22 949.0
20260505205646 73 296 3.0 6.0 0.00 0.00 0.00 22 949.0
20260505205445 74 329 2.0 6.0 0.00 0.00 0.00 23 949.0
20260505205246 73 17 2.0 6.0 0.00 0.00 0.00 23 949.0
20260505205043 74 353 0.0 6.0 0.00 0.00 0.00 22 949.0
20260505204843 74 11 1.0 6.0 0.00 0.00 0.00 23 949.0
20260505204643 74 271 1.0 6.0 0.00 0.00 0.00 23 949.0
20260505204442 74 267 1.0 6.0 0.00 0.00 0.00 22 949.0
20260505203602 74 50 0.0 5.0 0.00 0.00 0.00 23 949.0
20260505203402 74 50 0.0 5.0 0.00 0.00 0.00 23 949.0
20260505202835 73 46 0.0 5.0 0.00 0.00 0.00 22 949.0
20260505202635 74 309 1.0 3.0 0.00 0.00 0.00 22 949.0
20260505202425 75 43 0.0 2.0 0.00 0.00 0.00 22 949.0
20260505202215 75 101 0.0 0.0 0.00 0.00 0.00 23 949.0
20260505202013 75 101 0.0 6.0 0.00 0.00 0.00 23 949.0
20260505201805 74 13 1.0 6.0 0.00 0.00 0.00 23 949.0
20260505201605 73 31 4.0 6.0 0.00 0.00 0.00 23 949.0
20260505201403 74 14 0.0 3.0 0.00 0.00 0.00 23 949.0
20260505201155 74 14 1.0 3.0 0.00 0.00 0.00 23 949.0
20260505200945 74 330 0.0 0.0 0.00 0.00 0.00 23 949.0
20260505200745 74 328 0.0 0.0 0.00 0.00 0.00 23 949.0
20260505200544 75 328 0.0 0.0 0.00 0.00 0.00 23 949.0
20260505200335 75 23 2.0 3.0 0.00 0.00 0.00 23 949.0
20260505200135 74 28 0.0 3.0 0.00 0.00 0.00 23 949.0
20260505195927 73 38 0.0 3.0 0.00 0.00 0.00 23 949.0
20260505195717 74 271 0.0 6.0 0.00 0.00 0.00 22 949.0
20260505195516 74 322 0.0 6.0 0.00 0.00 0.00 22 949.0